Regional Weather Roundup
Issued by NWS

Home | Current Version | Previous Version | Graphics & Text | Print | Product List | Glossary On
Versions: 1 2 3 4 5 6 7 8 9 10 11 12 13 14 15 16 17 18 19 20 21 22 23 24 25 26 27 28 29 30 31 32 33 34 35 36 37 38 39 40 41 42 43 44 45 46 47 48 49 50
667
ASUS44 KLIX 282005
RWRLA
LOUISIANA WEATHER ROUNDUP
NATIONAL WEATHER SERVICE NEW ORLEANS LA
200 PM CST WED JAN 28 2015

NOTE: "FAIR" INDICATES FEW OR NO CLOUDS BELOW 12,000 FEET WITH NO
      SIGNIFICANT WEATHER AND/OR OBSTRUCTIONS TO VISIBILITY.
      SKY/WX - SKY CONDITION AND SIGNIFICANT WEATHER.
      TMP - AIR TEMPERATURE.    DP   - DEWPOINT TEMPERATURE.
      RH  - RELATIVE HUMIDITY.  PRES - PRESSURE.
      HX  - HEAT INDEX.         WCI  - WIND CHILL INDEX.

*  THESE STATIONS ARE NOT NWS OR FAA STATIONS AND ARE NOT UNDER
   NWS QUALITY CONTROL.

LAZ040-048-061>063-065-066-069-282100-
SOUTHEAST LOUISIANA

CITY           SKY/WX    TMP DP  RH WIND       PRES   REMARKS
N.O. AUDUBON   NOT AVBL
N.O. INTL ARPT MOSUNNY   67  38  34 VRB7      30.24F
N.O. LAKEFRONT SUNNY     63  40  42 E8        30.26F
N.O. DOWNTOWN* NOT AVBL
SLIDELL        SUNNY     65  41  41 S9        30.23F
BATON ROUGE    SUNNY     70  35  27 SE8       30.21F
BOOTHVILLE     SUNNY     60  47  61 NE9       30.25F
BELLE CHASSE   SUNNY     65  42  43 E8        30.24F
BOGALUSA*        N/A     68  31  24 CALM      30.24F
GALLIANO*      CLEAR     67  45  44 MISG      30.24F
NEW ROADS*     FAIR      69  37  30 SE9       30.21F
GONZALES*      FAIR      69  41  36 CALM      30.22F
HAMMOND*       SUNNY     70  34  26 S3        30.24F
HOUMA*         SUNNY     68  45  42 NE9       30.23F
PORT FOURCHON* CLEAR     64  50  59 E13       30.27F

$$

LAZ041-044-053-054-282100-
SOUTHWEST LOUISIANA

CITY           SKY/WX    TMP DP  RH WIND       PRES   REMARKS
LAKE CHARLES   SUNNY     71  41  33 S13       30.20F
LAFAYETTE      SUNNY     70  41  34 S7        30.21F
PATTERSON      SUNNY     70  43  37 SE7       30.23F
SALT POINT       N/A     65  45  48 SE8       30.21F
NEW IBERIA     SUNNY     71  41  33 S9        30.22F
CHENAULT AIRPK NOT AVBL

$$

LAZ027-028-282100-
CENTRAL LOUISIANA

CITY           SKY/WX    TMP DP  RH WIND       PRES   REMARKS
FORT POLK      SUNNY     72  40  30 S9        30.17F
ALEXANDRIA INT SUNNY     70  44  39 SE12      30.17F
ALEXANDRIA     SUNNY     73  40  30 SE8       30.18F

$$

LAZ001-002-282100-
NORTHWEST LOUISIANA

CITY           SKY/WX    TMP DP  RH WIND       PRES   REMARKS
SHREVEPORT     MOSUNNY   76  43  30 S16G22    30.11F
BARKSDALE AFB  SUNNY     75  42  30 S14       30.11F
DTN SHREVEPORT SUNNY     74  41  30 S15       30.11F

$$

LAZ014-016-282100-
NORTHEAST LOUISIANA

CITY           SKY/WX    TMP DP  RH WIND       PRES   REMARKS
MONROE         SUNNY     68  41  37 SE6       30.17F
TALLULAH       SUNNY     68  36  30 SE8       30.19F

$$




USA.gov is the U.S. government's official web portal to all federal, state and local government web resources and services.